Weather History for KGDV - November, 2012

Change the Weather History Date:

Saturday, November 10, 2012

  Actual Average (KMLS) Record (KMLS)
Temperature  
Mean Temperature 12 °F 35 °F  
Max Temperature 19 °F 46 °F 72 °F (2007)
Min Temperature 5 °F 24 °F -13 °F (1986)
Degree Days  
Heating Degree Days 53 30  
Month to date heating degree days 276  
Since 1 July heating degree days 1087  
Cooling Degree Days 0 0  
Month to date cooling degree days 0  
Year to date cooling degree days 730  
Moisture  
Dew Point 8 °F    
Average Humidity 79    
Maximum Humidity 93    
Minimum Humidity 72    
Precipitation  
Precipitation 0.00 in 0.01 in 0.52 in (1978)
Month to date precipitation 0.16  
Year to date precipitation 11.92  
Sea Level Pressure  
Sea Level Pressure 29.85 in    
Wind  
Wind Speed 14 mph (NNW)    
Max Wind Speed 18 mph    
Max Gust Speed 31 mph    
Visibility 8 miles    
Events      
T = Trace of Precipitation, MM = Missing Value Source: NWS Daily Summary

Daily Weather History Graph

Daily Weather History Graph

Search for Another Location

Airport or City:

Trip Planner

Search our weather history database for the weather conditions in past years. The results will help you decide how hot, cold, wet, or windy it might be!

Date:

Astronomy

Nov. 10, 2012 Rise Set
Actual Time 6:56 AM MST 4:29 PM MST
Civil Twilight 6:23 AM MST 5:02 PM MST
Nautical Twilight 5:46 AM MST 5:38 PM MST
Astronomical Twilight 5:11 AM MST 6:14 PM MST
Moon 2:51 AM MST (11/10) 2:28 PM MST (11/10)
Length of Visible Light 10h 38m
Length of Day
9h 32m
Waning Crescent, 14% of the Moon is Illuminated
Nov 10
Waning Crescent
Nov 13
New
Nov 20
First Quarter
Nov 28
Full
Dec 6
Last Quarter

Hourly Weather History & Observations

Time (MST) Temp. Windchill Dew Point Humidity Pressure Visibility Wind Dir Wind Speed Gust Speed Precip Events Conditions
12:15 AM 19.4 °F 4.5 °F 17.6 °F 93% 29.78 in 0.8 mi NNE 17.3 mph - N/A   Overcast
12:35 AM 19.4 °F 6.6 °F 15.8 °F 86% 29.78 in 0.2 mi NE 12.7 mph 29.9 mph N/A   Overcast
12:55 AM 19.4 °F 6.0 °F 15.8 °F 86% 29.79 in 0.8 mi NE 13.8 mph 31.1 mph N/A   Overcast
1:15 AM 19.4 °F 6.0 °F 15.8 °F 86% 29.80 in 1.5 mi NNE 13.8 mph - N/A   Overcast
1:35 AM 19.4 °F 5.5 °F 15.8 °F 86% 29.79 in 2.0 mi NNE 15.0 mph - N/A   Overcast
1:55 AM 17.6 °F 3.2 °F 14.0 °F 86% 29.79 in 3.0 mi NNE 15.0 mph - N/A   Overcast
2:16 AM 17.6 °F 2.7 °F 14.0 °F 86% 29.78 in 4.0 mi NNE 16.1 mph - N/A   Overcast
2:35 AM 17.6 °F 3.7 °F 14.0 °F 86% 29.79 in 4.0 mi NNE 13.8 mph - N/A   Overcast
2:55 AM 17.6 °F 3.7 °F 12.2 °F 79% 29.79 in 5.0 mi NNE 13.8 mph - N/A   Overcast
3:15 AM 17.6 °F 4.3 °F 14.0 °F 86% 29.78 in 6.0 mi NNE 12.7 mph - N/A   Overcast
3:35 AM 17.6 °F 3.2 °F 12.2 °F 79% 29.79 in 3.0 mi NNE 15.0 mph - N/A   Overcast
3:55 AM 17.6 °F 4.3 °F 12.2 °F 79% 29.79 in 4.0 mi NNE 12.7 mph - N/A   Overcast
4:15 AM 17.6 °F 2.7 °F 12.2 °F 79% 29.77 in 8.0 mi NNE 16.1 mph - N/A   Partly Cloudy
4:35 AM 17.6 °F 4.3 °F 12.2 °F 79% 29.80 in 6.0 mi NNE 12.7 mph - N/A   Clear
4:55 AM 17.6 °F 5.7 °F 12.2 °F 79% 29.83 in 5.0 mi NNE 10.4 mph - N/A   Mostly Cloudy
5:15 AM 17.6 °F 4.3 °F 12.2 °F 79% 29.80 in 3.0 mi NNE 12.7 mph - N/A   Overcast
5:35 AM 15.8 °F 0.9 °F 12.2 °F 86% 29.78 in 2.5 mi North 15.0 mph - N/A   Overcast
5:55 AM 15.8 °F 6.1 °F 12.2 °F 86% 29.81 in 4.0 mi North 6.9 mph - N/A   Mostly Cloudy
6:15 AM 15.8 °F 5.1 °F 10.4 °F 79% 29.82 in 9.0 mi North 8.1 mph - N/A   Scattered Clouds
6:35 AM 15.8 °F 5.1 °F 10.4 °F 79% 29.83 in 10.0 mi NNW 8.1 mph - N/A   Scattered Clouds
6:55 AM 15.8 °F 2.7 °F 10.4 °F 79% 29.82 in 10.0 mi NNW 11.5 mph - N/A   Mostly Cloudy
7:15 AM 15.8 °F 2.7 °F 10.4 °F 79% 29.82 in 10.0 mi NNW 11.5 mph - N/A   Overcast
7:35 AM 15.8 °F 2.7 °F 10.4 °F 79% 29.82 in 10.0 mi NNW 11.5 mph - N/A   Overcast
7:55 AM 14.0 °F 0.5 °F 8.6 °F 79% 29.83 in 10.0 mi NNW 11.5 mph - N/A   Scattered Clouds
8:15 AM 12.2 °F -1.8 °F 8.6 °F 85% 29.81 in 10.0 mi NNW 11.5 mph - N/A   Clear
8:35 AM 12.2 °F -2.5 °F 8.6 °F 85% 29.82 in 10.0 mi NNW 12.7 mph - N/A   Clear
8:55 AM 14.0 °F 1.2 °F 8.6 °F 79% 29.84 in 10.0 mi NNW 10.4 mph - N/A   Mostly Cloudy
9:15 AM 14.0 °F -0.2 °F 8.6 °F 79% 29.86 in 10.0 mi NNW 12.7 mph - N/A   Overcast
9:35 AM 14.0 °F -1.4 °F 8.6 °F 79% 29.84 in 10.0 mi NNW 15.0 mph 18.4 mph N/A   Mostly Cloudy
9:55 AM 14.0 °F -0.8 °F 8.6 °F 79% 29.86 in 10.0 mi NNW 13.8 mph - N/A   Mostly Cloudy
10:15 AM 14.0 °F 2.0 °F 8.6 °F 79% 29.86 in 10.0 mi NW 9.2 mph - N/A   Scattered Clouds
10:35 AM 14.0 °F -0.2 °F 8.6 °F 79% 29.85 in 8.0 mi NNW 12.7 mph - N/A   Partly Cloudy
10:55 AM 14.0 °F 0.5 °F 8.6 °F 79% 29.85 in 9.0 mi NW 11.5 mph - N/A   Scattered Clouds
11:15 AM 14.0 °F -0.8 °F 8.6 °F 79% 29.84 in 10.0 mi NNW 13.8 mph - N/A   Overcast
11:35 AM 15.8 °F 2.1 °F 8.6 °F 73% 29.86 in 10.0 mi NW 12.7 mph - N/A   Overcast
11:55 AM 15.8 °F 0.9 °F 8.6 °F 73% 29.85 in 10.0 mi NW 15.0 mph - N/A   Overcast
12:15 PM 15.8 °F 0.9 °F 8.6 °F 73% 29.85 in 10.0 mi NW 15.0 mph 19.6 mph N/A   Overcast
12:35 PM 15.8 °F 0.3 °F 8.6 °F 73% 29.84 in 10.0 mi NW 16.1 mph - N/A   Scattered Clouds
12:55 PM 15.8 °F 0.3 °F 8.6 °F 73% 29.85 in 10.0 mi NW 16.1 mph 21.9 mph N/A   Clear
1:15 PM 15.8 °F 1.4 °F 8.6 °F 73% 29.85 in 10.0 mi NW 13.8 mph - N/A   Partly Cloudy
1:35 PM 15.8 °F -0.6 °F 8.6 °F 73% 29.84 in 10.0 mi NW 18.4 mph - N/A   Partly Cloudy
1:55 PM 15.8 °F -0.6 °F 8.6 °F 73% 29.85 in 10.0 mi NW 18.4 mph 23.0 mph N/A   Clear
2:15 PM 15.8 °F -0.2 °F 8.6 °F 73% 29.85 in 10.0 mi NW 17.3 mph 21.9 mph N/A   Mostly Cloudy
2:35 PM 15.8 °F 0.9 °F 8.6 °F 73% 29.87 in 10.0 mi NW 15.0 mph 21.9 mph N/A   Mostly Cloudy
2:55 PM 15.8 °F -0.2 °F 8.6 °F 73% 29.87 in 10.0 mi NW 17.3 mph - N/A   Partly Cloudy
3:16 PM 15.8 °F 1.4 °F 8.6 °F 73% 29.88 in 7.0 mi NW 13.8 mph 20.7 mph N/A   Clear
3:35 PM 14.0 °F -1.4 °F 8.6 °F 79% 29.88 in 10.0 mi NW 15.0 mph 23.0 mph N/A   Clear
3:55 PM 14.0 °F -2.0 °F 8.6 °F 79% 29.88 in 10.0 mi WNW 16.1 mph - N/A   Clear
4:15 PM 14.0 °F -2.5 °F 8.6 °F 79% 29.89 in 10.0 mi NW 17.3 mph - N/A   Clear
4:35 PM 12.2 °F -5.3 °F 6.8 °F 79% 29.89 in 10.0 mi NW 18.4 mph 24.2 mph N/A   Clear
4:55 PM 12.2 °F -4.8 °F 6.8 °F 79% 29.88 in 10.0 mi NW 17.3 mph 25.3 mph N/A   Clear
5:15 PM 12.2 °F -4.8 °F 6.8 °F 79% 29.91 in 10.0 mi NW 17.3 mph - N/A   Clear
5:35 PM 10.4 °F -7.7 °F 3.2 °F 73% 29.91 in 10.0 mi NW 18.4 mph - N/A   Clear
5:55 PM 8.6 °F -7.7 °F 3.2 °F 79% 29.94 in 10.0 mi WNW 13.8 mph - N/A   Clear
6:15 PM 8.6 °F -8.3 °F 3.2 °F 79% 29.92 in 10.0 mi WNW 15.0 mph - N/A   Clear
6:35 PM 8.6 °F -7.7 °F 1.4 °F 73% 29.93 in 10.0 mi WNW 13.8 mph - N/A   Clear
7:15 PM 6.8 °F -9.3 °F -0.4 °F 72% 29.94 in 10.0 mi West 12.7 mph - N/A   Clear
7:35 PM 6.8 °F -10.7 °F 1.4 °F 79% 29.93 in 10.0 mi West 15.0 mph - N/A   Clear
7:55 PM 6.8 °F -10.0 °F -0.4 °F 72% 29.93 in 10.0 mi West 13.8 mph - N/A   Clear
8:15 PM 6.8 °F -10.7 °F 1.4 °F 79% 29.93 in 10.0 mi WNW 15.0 mph - N/A   Clear
8:55 PM 6.8 °F -9.3 °F 1.4 °F 79% 29.92 in 10.0 mi WNW 12.7 mph - N/A   Clear
9:15 PM 6.8 °F -6.9 °F -0.4 °F 72% 29.92 in 10.0 mi WNW 9.2 mph - N/A   Mostly Cloudy
9:35 PM 5.0 °F -9.1 °F -2.2 °F 72% 29.91 in 10.0 mi West 9.2 mph - N/A   Mostly Cloudy
9:55 PM 5.0 °F -10.0 °F 1.4 °F 85% 29.90 in 10.0 mi West 10.4 mph - N/A   Mostly Cloudy
10:15 PM 5.0 °F -10.8 °F -0.4 °F 78% 29.89 in 10.0 mi WNW 11.5 mph - N/A   Mostly Cloudy
10:35 PM 6.8 °F -7.8 °F -0.4 °F 72% 29.89 in 9.0 mi West 10.4 mph - N/A   Mostly Cloudy
10:55 PM 6.8 °F -10.7 °F 3.2 °F 85% 29.90 in 10.0 mi West 15.0 mph - N/A   Partly Cloudy
11:15 PM 6.8 °F -11.3 °F 1.4 °F 79% 29.90 in 10.0 mi West 16.1 mph - N/A   Clear
11:55 PM 6.8 °F -10.0 °F 3.2 °F 85% 29.90 in 10.0 mi West 13.8 mph - N/A   Clear